This demonstration page uses our WeatherBlox Daily Observations layout. Learn more.

Left ArrowRight Arrow

Hourly Observations for December 3, 2017

Temp ( °F °C ) Dew Point ( °F °C ) Humidity (%) Winds ( mph kmh ) Pressure ( in mb ) Visibility ( mi km ) Precip ( " mm )
12:39 am 00:39 Mostly Clear with Mist and Fog 51 10.6 51 10.6 100 100 Calm 30.21 1023 2 3 0.00 0.00
12:46 am 00:46 Clear with Mist and Fog 51 10.6 51 10.6 100 100 Calm 30.18 1022 6 10 0.00 0.00
12:53 am 00:53 Mostly Clear with Mist and Fog 51 10.6 51 10.6 100 100 Calm 30.15 1021 6 10 0.00 0.00
1:53 am 01:53 Mostly Cloudy with Mist and Fog 49 9.4 49 9.4 100 100 Calm 30.15 1021 6 10 0.00 0.00
2:53 am 02:53 Cloudy with Mist and Fog 50 10 50 10 100 100 Calm 30.16 1021 6 10 0.00 0.00
3:53 am 03:53 Mostly Cloudy with Mist and Fog 50 10 50 10 100 100 Calm 30.15 1021 5 8 0.00 0.00
4:28 am 04:28 Mostly Clear with Mist and Fog 49 9.4 49 9.4 100 100 Calm 30.18 1022 1 2 0.00 0.00
4:38 am 04:38 Mostly Cloudy with Mist and Fog 48 8.9 48 8.9 100 100 Calm 30.18 1022 5 8 0.00 0.00
4:53 am 04:53 Mostly Clear with Mist and Fog 49 9.4 49 9.4 100 100 Calm 30.15 1021 5 8 0.00 0.00
5:53 am 05:53 Mostly Clear with Mist and Fog 47 8.3 47 8.3 100 100 Calm 30.16 1021 5 8 0.00 0.00
6:53 am 06:53 Mostly Clear with Mist and Fog 45 7.2 45 7.2 100 100 Calm 30.19 1022 5 8 0.00 0.00
7:53 am 07:53 Partly Cloudy with Mist and Fog 44 6.7 44 6.7 100 100 Calm 30.20 1023 4 6 0.00 0.00
8:00 am 08:00 Mostly Cloudy with Fog 44 6.7 44 6.7 100 100 Calm 30.21 1023 5 8 0.00 0.00
8:53 am 08:53 Mostly Cloudy with Fog 47 8.3 47 8.3 100 100 Calm 30.22 1023 5 8 0.00 0.00
9:53 am 09:53 Mostly Cloudy with Fog 48 8.9 48 8.9 100 100 NE 3 6 30.23 1024 0 0 0.00 0.00
10:05 am 10:05 Mostly Cloudy with Fog 49 9.4 49 9.4 100 100 NE 3 6 30.24 1024 1 1 0.00 0.00
10:17 am 10:17 Cloudy with Fog 49 9.4 49 9.4 100 100 NE 6 9 30.24 1024 0 0 0.00 0.00
10:34 am 10:34 Cloudy with Mist and Fog 50 10 50 10 100 100 NNE 3 6 30.24 1024 2 3 0.00 0.00
10:46 am 10:46 Partly Cloudy with Mist and Fog 50 10 50 10 100 100 Calm 30.24 1024 4 6 0.00 0.00
10:53 am 10:53 Partly Cloudy with Mist and Fog 52 11.1 51 10.6 97 97 Calm 30.22 1023 5 8 0.00 0.00
11:53 am 11:53 Sunny 62 16.7 48 8.9 60 60 VRB 5 7 30.19 1023 10 16 0.00 0.00
12:53 pm 12:53 Sunny 64 17.8 44 6.7 48 48 Calm 30.16 1022 10 16 0.00 0.00
1:53 pm 13:53 Sunny 69 20.6 42 5.6 38 38 NNW 5 7 30.14 1021 10 16 0.00 0.00
2:53 pm 14:53 Sunny 69 20.6 42 5.6 38 38 N 5 7 30.13 1020 10 16 0.00 0.00
3:53 pm 15:53 Sunny 69 20.6 41 5 36 36 Calm 30.13 1020 10 16 0.00 0.00
4:53 pm 16:53 Sunny 67 19.4 42 5.6 41 41 Calm 30.13 1020 10 16 0.00 0.00
5:53 pm 17:53 Clear 63 17.2 45 7.2 52 52 Calm 30.15 1021 10 16 0.00 0.00
6:53 pm 18:53 Clear 58 14.4 44 6.7 60 60 Calm 30.17 1022 10 16 0.00 0.00
7:53 pm 19:53 Clear 53 11.7 45 7.2 74 74 Calm 30.19 1022 10 16 0.00 0.00
8:53 pm 20:53 Clear 52 11.1 45 7.2 77 77 Calm 30.20 1023 10 16 0.00 0.00
9:53 pm 21:53 Clear 48 8.9 46 7.8 93 93 Calm 30.21 1023 10 16 0.00 0.00
10:53 pm 22:53 Clear 47 8.3 45 7.2 93 93 Calm 30.21 1023 10 16 0.00 0.00
11:53 pm 23:53 Clear 46 7.8 44 6.7 93 93 Calm 30.22 1023 10 16 0.00 0.00

Powered by AerisWeather